Location: Newark
(52.2090°N, 4.1550°W)
Time: 05:24:05
(UTC+00:00)

Transit 2A - Pass Details

Date: 26 October 2019
Orbit: 601 x 957 km, 66.7° (Epoch: 14 November)

Event Time Altitude Azimuth Distance (km) Brightness Sun altitude
Rises 18:38:00 0° 216° (SW) 3,286 9.8 -15.6°
Reaches altitude 10° 18:40:31 10° 216° (SW) 2,302 9.0 -16.0°
Maximum altitude 18:45:45 87° 129° (SE) 718 5.8 -16.8°
Enters shadow 18:49:27 17° 40° (NE) 1,687 7.4 -17.3°
